CAPE
0 0 0 0 0 0 0 0 0 0 0 0 0 0 0 0 0 0 0 0 0 0 0 0 0 0 0 0 0 0 0 0 0 0 0 0 0 0 0 0 0 0 1 0
0 0 0 0 0 0 0 0 0 0 0 0 0 0 0 0 0 0 0 0 0 0 0 0 0 0 0 0 0 0 0 0 0 0 0 0 0 0 0 0 0 0 0 0
0 0 0 0 0 0 0 0 0 0 0 0 0 0 0 0 0 0 0 0 0 0 0 0 0 0 0 0 0 0 0 0 0 0 0 0 0 0 0 0 0 0 0 0
0 0 0 0 0 0 0 0 0 0 0 0 0 0 0 0 0 0 0 0 0 0 0 0 0 0 0 0 0 0 0 0 0 0 0 0 0 0 0 0 0 0 0 0
0 0 0 0 0 0 0 0 0 0 0 0 0 0 0 0 0 0 0 0 0 0 0 0 0 0 0 0 0 0 0 0 0 0 0 0 0 0 0 0 0 0 0 0
0 0 0 0 0 0 0 0 0 0 0 0 0 0 0 0 0 0 0 0 0 0 0 0 0 0 0 0 0 0 0 0 0 0 0 0 0 0 0 0 0 0 0 0
0 0 0 0 0 0 0 0 0 0 0 0 0 0 0 0 0 0 0 0 0 0 0 0 0 0 0 0 0 0 0 0 0 0 0 0 0 0 0 0 0 0 0 0
0 0 0 0 0 0 0 0 0 0 0 0 0 0 0 0 0 0 0 0 0 0 0 0 0 0 0 0 0 0 0 0 0 0 0 0 0 0 0 0 0 0 0 0
0 0 0 0 0 0 0 0 0 0 0 0 0 0 0 0 0 0 0 0 0 0 0 0 0 0 0 0 0 0 0 0 0 0 0 0 0 0 0 0 0 0 0 0
0 0 0 0 0 0 0 0 0 0 0 0 0 0 0 0 0 0 0 0 0 0 0 0 0 0 0 0 0 0 0 0 0 0 0 0 0 0 0 0 0 0 0 0
0 0 0 0 0 0 0 0 0 0 0 0 0 0 0 0 0 0 0 0 0 0 0 0 0 0 0 0 0 0 0 0 0 0 0 0 0 0 0 0 0 0 0 0
0 0 0 0 0 0 0 0 0 0 0 0 0 0 0 0 0 0 0 0 0 0 0 0 0 0 0 0 0 0 0 0 0 0 0 0 0 0 0 0 0 0 0 0
0 1 0 0 0 0 0 0 0 0 0 0 3 0 0 0 0 0 0 0 0 0 0 0 0 0 0 0 0 0 0 0 0 0 0 0 0 0 0 0 0 0 0 0
2 0 2 0 0 0 0 0 0 0 0 0 0 0 0 0 0 0 0 0 0 0 0 0 0 0 0 0 0 0 0 0 0 0 0 0 0 0 0 0 0 0 0 0
5 5 0 0 0 0 0 0 0 0 0 0 0 0 0 0 0 0 0 0 0 0 0 0 0 0 0 0 0 0 0 0 0 0 0 0 0 0 0 0 0 0 0 0
0 0 0 0 0 0 0 0 0 0 0 0 0 0 0 0 0 0 0 0 0 0 0 0 0 0 0 0 0 0 0 0 0 0 0 0 0 0 0 0 0 0 0 0
0 0 0 0 0 0 0 0 0 0 0 0 0 0 0 0 0 0 0 0 0 0 0 0 0 0 0 0 0 0 0 0 0 0 0 0 0 0 0 0 0 0 0 0
0 0 0 0 0 0 0 0 0 0 0 0 0 0 0 0 0 0 0 0 0 0 0 0 0 0 0 0 0 0 0 0 0 0 0 0 0 0 0 0 0 0 0 0
0 0 0 0 0 0 0 0 0 0 0 0 0 0 0 0 0 0 0 0 0 0 0 0 0 0 0 0 0 0 0 0 0 0 0 0 0 0 0 0 0 0 0 0
0 0 0 0 0 0 0 0 0 0 0 0 0 0 0 0 0 0 0 0 0 0 0 0 0 0 0 0 0 0 0 0 0 0 0 0 0 0 0 0 0 0 0 0
0 0 0 0 0 0 0 0 0 0 0 0 0 0 0 0 0 0 0 0 0 0 0 0 0 0 0 0 0 0 0 0 0 0 0 0 0 0 0 0 0 0 0 0
0 0 0 0 0 0 0 0 0 0 0 0 0 0 0 0 0 0 0 0 0 0 0 0 0 0 0 0 0 0 0 0 0 0 0 0 0 0 0 0 0 0 0 0
0 0 0 0 0 0 0 0 0 0 0 0 0 0 0 0 0 0 0 0 0 0 0 0 0 0 0 0 0 0 0 0 0 0 0 0 0 0 0 0 0 0 0 0
0 0 0 0 0 0 0 0 0 0 0 0 0 0 0 0 0 0 0 0 0 0 0 0 0 0 0 0 0 0 0 0 0 0 0 0 0 0 0 0 0 0 0 0
0 0 0 0 0 0 0 0 0 0 0 0 0 0 0 0 0 0 0 0 0 0 0 0 0 0 0 0 0 0 0 0 0 0 0 0 0 0 0 0 0 0 0 0
0 0 0 0 0 0 0 0 0 0 0 0 0 0 0 0 0 0 0 0 0 0 0 0 0 0 0 0 0 0 0 0 0 0 0 0 0 0 0 0 0 0 0 0
CIN
0 0 0 0 0 0 0 0 0 0 0 0 0 0 0 0 0 0 0 0 0 0 0 0 0 0 0 0 0 0 0 0 0 0 0 0 0 0 0 0 0 0 -29 -14
0 0 0 0 0 0 0 0 0 0 0 0 0 0 0 0 0 0 0 0 0 0 0 0 0 0 0 0 0 0 0 0 0 0 0 0 0 0 0 0 0 0 0 0
0 0 0 0 0 0 0 0 0 0 0 0 0 0 0 0 0 0 0 0 0 0 0 0 0 0 0 0 0 0 0 0 0 0 0 0 0 0 0 0 0 0 0 0
0 0 0 0 0 0 0 0 0 0 0 0 0 0 0 0 0 0 0 0 0 0 0 0 0 0 0 0 0 0 0 0 0 0 0 0 0 0 0 0 0 0 0 0
0 0 0 0 0 0 0 0 0 0 0 0 0 0 0 0 0 0 0 0 0 0 0 0 0 0 0 0 0 0 0 0 0 0 0 0 0 0 0 0 0 0 0 0
0 0 0 0 0 0 0 0 0 0 0 0 0 0 0 0 0 0 0 0 0 0 0 0 0 0 0 0 0 0 0 0 0 0 0 0 0 0 0 0 0 0 0 0
0 0 0 0 0 0 0 0 0 0 0 0 0 0 0 0 0 0 0 0 0 0 0 0 0 0 0 0 0 0 0 0 0 0 0 0 0 0 0 0 0 0 0 0
0 0 0 0 0 0 0 0 0 0 0 0 0 0 0 0 0 0 0 0 0 0 0 0 0 0 0 0 0 0 0 0 0 0 0 0 0 0 0 0 0 0 0 0
0 0 0 0 0 0 0 0 0 0 0 0 0 0 0 0 0 0 0 0 0 0 0 0 0 0 0 0 0 0 0 0 0 0 0 0 0 0 0 0 0 0 0 0
0 0 0 0 0 0 0 0 0 0 0 0 0 0 0 0 0 0 0 0 0 0 0 0 0 0 0 0 0 0 0 0 0 0 0 0 0 0 0 0 0 0 0 0
0 0 0 0 0 0 0 0 0 0 0 0 0 0 0 0 0 0 0 0 0 0 0 0 0 0 0 0 0 0 0 0 0 0 0 0 0 0 0 0 0 0 0 0
0 0 0 0 0 0 0 0 0 0 0 0 0 0 0 0 0 0 0 0 0 0 0 0 0 0 0 0 0 0 0 0 0 0 0 0 0 0 0 0 0 0 0 0
0 -14 0 0 0 0 0 0 0 0 0 0 -3 0 0 0 0 0 0 0 0 0 0 0 0 0 0 0 0 0 0 0 0 0 0 0 0 0 0 0 0 0 0 0
-23 -17 -11 0 0 0 0 0 0 0 0 0 0 0 0 0 0 0 0 0 0 0 0 0 0 0 0 0 0 0 0 0 0 0 0 0 0 0 0 0 0 0 0 0
-19 -8 -5 0 0 0 0 0 0 0 0 0 0 0 0 0 0 0 0 0 0 0 0 0 0 0 0 0 0 0 0 0 0 0 0 0 0 0 0 0 0 0 0 0
0 0 0 0 0 0 0 0 0 0 0 0 0 0 0 0 0 0 0 0 0 0 0 0 0 0 0 0 0 0 0 0 0 0 0 0 0 0 0 0 0 0 0 0
0 0 0 0 0 0 0 0 0 0 0 0 0 0 0 0 0 0 0 0 0 0 0 0 0 0 0 0 0 0 0 0 0 0 0 0 0 0 0 0 0 0 0 0
0 0 0 0 0 0 0 0 0 0 0 0 0 0 0 0 0 0 0 0 0 0 0 0 0 0 0 0 0 0 0 0 0 0 0 0 0 0 0 0 0 0 0 0
0 0 0 0 0 0 0 0 0 0 0 0 0 0 0 0 0 0 0 0 0 0 0 0 0 0 0 0 0 0 0 0 0 0 0 0 0 0 0 0 0 0 0 0
0 0 0 0 0 0 0 0 0 0 0 0 0 0 0 0 0 0 0 0 0 0 0 0 0 0 0 0 0 0 0 0 0 0 0 0 0 0 0 0 0 0 0 0
0 0 0 0 0 0 0 0 0 0 0 0 0 0 0 0 0 0 0 0 0 0 0 0 0 0 0 0 0 0 0 0 0 0 0 0 0 0 0 0 0 0 0 0
0 0 0 0 0 0 0 0 0 0 0 0 0 0 0 0 0 0 0 0 0 0 0 0 0 0 0 0 0 0 0 0 0 0 0 0 0 0 0 0 0 0 0 0
0 0 0 0 0 0 0 0 0 0 0 0 0 0 0 0 0 0 0 0 0 0 0 0 0 0 0 0 0 0 0 0 0 0 0 0 0 0 0 0 0 0 0 0
0 0 0 0 0 0 0 0 0 0 0 0 0 0 0 0 0 0 0 0 0 0 0 0 0 0 0 0 0 0 0 0 0 0 0 0 0 0 0 0 0 0 0 0
0 0 0 0 0 0 0 0 0 0 0 0 0 0 0 0 0 0 0 0 0 0 0 0 0 0 0 0 0 0 0 0 0 0 0 0 0 0 0 0 0 0 0 0
0 0 0 0 0 0 0 0 0 0 0 0 0 0 0 0 0 0 0 0 0 0 0 0 0 0 0 0 0 0 0 0 0 0 0 0 0 0 0 0 0 0 0 0
Wind_Speed
16 19 19 15 13 19 23 25 25 25 24 26 25 27 27 22 23 20 18 18 19 19 20 22 23 23 23 24 24 25 24 24 22 20 18 19 19 19 20 21 22 23 24 24
20 22 15 18 20 21 25 25 24 27 26 25 27 27 26 27 25 21 16 15 16 16 18 20 21 21 23 24 24 24 24 24 23 21 19 18 18 19 19 22 24 26 25 24
23 23 18 20 22 22 24 24 26 27 28 26 28 32 24 24 23 20 17 14 13 14 15 17 19 20 20 23 24 25 24 24 24 23 20 19 19 20 22 24 25 26 26 26
23 21 22 21 23 22 26 23 24 26 23 26 22 39 26 24 22 20 16 15 14 14 15 15 17 19 20 21 22 23 24 25 25 24 23 22 21 22 23 24 25 26 26 27
21 21 19 18 19 18 20 16 16 19 24 27 24 32 31 24 25 19 15 14 14 15 15 15 16 17 19 20 22 23 23 24 25 24 24 23 23 24 25 26 27 28 28 29
21 20 19 18 18 14 16 19 22 23 25 37 29 27 33 26 24 19 14 12 13 13 13 14 15 16 18 20 21 22 22 23 24 24 25 25 26 26 27 28 29 29 30 31
20 18 16 15 17 16 16 21 30 33 31 37 26 28 29 28 26 19 14 13 12 12 11 13 15 17 18 20 21 22 22 23 25 25 26 26 27 28 29 29 30 31 32 33
27 30 15 13 15 20 20 20 28 40 38 38 28 34 30 27 24 18 12 13 11 11 12 13 14 17 18 19 20 21 22 24 23 25 28 27 28 28 29 31 32 33 33 34
30 32 19 17 18 17 23 28 24 31 34 40 35 31 28 26 24 19 15 12 13 13 14 15 16 18 18 19 20 21 23 24 26 27 26 28 29 30 31 32 34 36 36 37
24 36 22 19 18 21 23 19 31 31 41 44 41 39 35 25 22 17 17 16 15 16 17 18 19 20 20 20 21 23 24 26 26 26 28 29 31 32 34 35 37 38 39 40
22 27 29 21 23 26 28 32 29 30 32 42 46 41 27 23 18 18 18 17 17 18 19 20 21 22 22 23 23 24 24 25 25 27 29 32 33 36 36 37 38 40 41 42
22 27 35 31 24 24 25 29 28 39 41 36 40 44 25 23 21 20 20 20 20 23 25 25 26 25 25 25 26 26 25 27 28 29 31 32 34 36 38 39 40 42 44 44
22 29 42 41 34 29 31 31 32 32 33 41 44 42 23 22 22 23 25 24 26 29 29 28 27 26 26 26 26 26 27 28 28 29 31 33 36 38 40 41 42 44 46 47
22 32 38 46 40 29 33 30 28 31 39 39 42 41 34 31 32 31 32 34 36 35 30 28 27 25 26 26 26 27 27 27 28 30 32 35 38 40 43 45 46 47 47 50
29 42 38 39 36 33 36 38 35 37 38 43 47 44 43 40 38 40 39 38 36 33 29 26 25 25 26 27 27 27 27 28 29 32 34 36 38 40 43 45 46 47 49 51
27 38 34 41 34 36 44 43 40 41 43 44 43 48 41 44 40 36 36 36 37 35 31 26 26 27 27 28 28 27 28 29 30 32 35 37 40 42 44 44 46 48 51 53
31 34 39 48 40 40 49 43 42 42 38 38 44 40 36 39 38 36 35 34 34 34 32 31 29 29 27 27 27 28 27 27 29 32 35 38 40 42 42 45 48 51 54 55
31 32 35 43 38 55 43 33 33 36 36 32 34 35 34 35 35 34 32 32 33 31 29 28 27 27 27 27 26 24 24 26 29 33 35 37 39 41 44 46 49 51 52 55
27 30 38 44 48 48 45 34 33 34 40 32 33 34 35 35 33 34 30 28 28 28 26 27 28 28 27 24 23 23 25 28 32 35 36 36 39 42 44 47 48 50 53 54
31 32 37 40 48 54 41 29 23 28 45 28 30 34 34 30 39 37 26 26 29 29 30 30 29 26 22 21 21 23 27 30 33 34 35 38 39 42 44 46 49 50 50 52
32 32 38 40 44 42 32 25 24 40 43 28 30 33 30 32 33 32 25 29 30 30 30 28 23 22 20 19 22 26 29 33 32 34 36 37 39 41 43 46 47 49 50 49
34 34 37 36 41 51 26 23 33 33 27 32 32 30 29 30 30 30 32 33 31 30 29 23 21 21 21 22 25 29 32 31 33 34 36 38 39 39 42 45 47 47 47 47
35 32 34 31 33 28 20 25 24 28 34 33 31 29 30 32 32 33 33 31 30 28 25 21 21 21 22 24 27 31 31 31 32 34 36 38 38 39 40 44 47 46 43 43
28 27 33 32 32 31 26 29 31 31 34 33 30 32 31 31 31 31 31 29 28 27 24 22 22 23 25 26 27 30 30 30 32 36 37 38 39 41 41 41 42 40 41 43
29 28 33 38 39 38 36 35 36 36 32 32 31 31 31 29 29 29 29 28 29 27 24 23 23 24 26 26 28 29 29 30 33 34 36 37 39 40 43 40 40 39 39 40
30 35 38 42 37 37 38 37 34 33 33 32 31 31 29 27 29 27 28 28 28 25 24 24 24 25 27 28 29 29 27 28 31 34 36 37 39 41 41 42 43 40 41 42
Wind_Direction
319 310 304 302 299 314 315 314 312 315 319 319 315 314 318 322 327 329 334 336 337 340 347 354 359 2 360 0 360 357 353 346 344 341 336 333 331 332 335 335 331 324 313 307
311 300 299 310 308 302 306 309 309 315 318 320 320 317 319 320 322 322 324 334 340 344 345 349 355 359 1 1 359 359 360 358 354 350 347 345 340 340 339 336 335 331 328 319
294 306 314 304 304 304 305 304 309 311 319 319 319 315 318 326 331 337 338 340 344 345 347 348 351 354 358 359 358 359 359 358 357 353 352 349 345 341 334 332 333 335 330 326
302 305 301 303 303 305 304 307 307 309 319 316 327 313 318 321 323 326 330 333 336 341 346 350 353 354 357 357 0 1 359 358 357 359 356 355 351 345 340 338 337 335 334 331
309 314 313 302 304 311 315 329 327 322 315 317 316 315 319 323 317 317 325 331 336 340 342 346 356 0 2 4 1 1 1 360 358 358 356 354 352 348 343 339 336 332 330 331
304 315 317 315 319 318 328 325 325 323 317 305 309 308 318 319 323 320 322 326 331 336 341 347 352 356 356 357 357 356 355 353 352 352 351 350 346 343 340 338 335 334 331 328
314 309 311 313 310 317 314 315 311 310 308 305 314 308 307 316 322 317 311 316 324 332 335 336 338 342 345 345 345 347 347 347 345 345 344 342 341 339 337 335 331 330 328 327
303 303 304 303 296 301 297 298 301 302 304 306 308 304 312 321 325 327 320 317 320 322 327 329 330 331 333 336 339 340 339 338 338 339 337 337 337 336 334 333 331 329 326 324
302 301 315 312 312 304 306 296 304 300 302 299 299 303 309 312 313 316 315 316 312 315 318 319 321 321 322 325 328 331 331 331 332 332 333 333 333 331 329 327 327 325 323 322
306 299 310 309 310 309 304 308 302 301 299 297 300 301 299 303 305 308 307 308 311 314 313 312 313 315 317 320 321 323 324 324 326 326 328 328 329 328 326 324 321 320 319 320
297 297 304 304 295 293 297 295 299 300 295 296 299 300 309 306 303 303 303 304 305 306 307 306 306 308 310 313 315 317 320 321 322 324 325 325 324 324 324 323 321 318 318 318
296 300 293 293 304 303 299 296 292 291 297 293 293 293 305 309 309 306 304 302 301 303 304 302 302 303 305 307 309 311 314 316 320 321 322 322 322 322 321 320 319 317 315 316
291 296 294 296 299 299 293 294 295 297 296 289 292 296 308 309 309 306 304 302 301 302 302 300 300 300 302 306 309 311 312 314 319 320 320 319 318 318 318 317 317 316 315 315
289 287 287 288 296 302 297 294 297 297 294 294 290 296 297 298 302 304 303 302 302 301 298 297 298 299 302 305 307 309 309 312 315 317 318 318 318 318 318 317 315 315 315 312
285 285 287 289 292 293 293 291 292 291 293 292 295 293 295 299 301 302 303 304 305 304 300 296 297 298 301 303 305 306 307 309 313 315 316 317 318 318 318 318 317 316 316 314
291 290 292 290 292 292 291 290 292 291 292 292 293 293 297 300 302 303 304 306 306 306 303 299 298 298 298 300 303 305 306 308 312 314 316 318 318 318 318 318 318 317 316 315
286 288 292 291 296 296 290 291 289 290 291 294 293 297 301 301 302 303 305 308 308 308 307 303 301 300 298 299 301 303 307 311 313 315 317 318 319 319 319 319 318 317 316 315
288 289 292 291 295 289 296 302 301 297 296 297 297 300 303 305 307 307 308 309 309 309 309 310 309 305 301 302 304 306 309 312 314 316 317 319 320 320 320 320 319 319 319 318
284 286 290 289 288 294 296 300 296 298 298 299 300 303 305 307 309 308 310 312 313 314 314 312 311 309 307 305 305 306 309 312 314 316 318 321 321 321 321 321 321 321 320 319
282 282 281 288 289 290 298 304 305 307 296 302 303 305 306 307 304 308 309 312 313 314 313 311 310 310 308 308 309 309 311 312 314 317 319 321 322 322 322 322 322 322 322 320
291 288 278 282 288 293 295 299 305 296 302 308 309 308 306 302 304 312 311 312 313 312 313 313 310 308 308 311 312 311 312 312 316 319 320 322 323 323 324 324 325 324 324 323
285 288 288 289 290 292 295 294 291 302 309 308 307 306 303 303 306 308 309 311 312 311 314 313 309 307 309 310 311 311 312 316 318 320 321 323 324 325 326 326 326 327 326 325
285 285 291 286 295 305 297 297 297 304 306 306 303 303 304 303 304 307 308 309 310 311 311 311 307 306 308 310 312 312 314 317 319 321 322 324 325 327 328 327 328 328 328 328
291 293 291 293 294 297 295 295 300 302 302 303 300 302 303 301 304 306 307 307 309 311 308 308 307 305 306 311 313 315 317 318 320 320 322 324 325 326 328 330 331 330 329 329
289 294 293 294 298 299 296 297 298 298 300 301 300 301 300 300 302 304 305 306 309 309 307 306 306 306 308 311 313 316 317 319 319 321 323 325 326 328 328 331 332 329 328 330
286 287 290 295 300 298 301 303 303 300 301 303 302 302 301 298 301 304 304 307 309 307 307 306 307 308 310 312 314 315 317 319 320 321 324 326 327 328 330 331 327 328 328 330